Regional Weather Roundup
Issued by NWS Jackson, KY

Home | Current Version | Previous Version | Text Only | Print | Product List | Glossary Off
Versions: 1 2 3 4 5 6 7 8 9 10 11 12 13 14 15 16 17 18 19 20 21 22 23 24 25 26 27

000
ASUS43 KJKL 162010
RWRJKL

EAST KENTUCKY HOURLY WEATHER ROUNDUP
NATIONAL WEATHER SERVICE JACKSON KY
300 PM EST MON JAN 16 2017

NOTE: "FAIR" INDICATES FEW OR NO CLOUDS BELOW 12,000 FEET WITH
NO SIGNIFICANT WEATHER AND/OR OBSTRUCTIONS TO VISIBILITY.

* THESE REPORTS ARE NOT UNDER NWS QUALITY CONTROL AND MAY NOT
  REPORT WEATHER SUCH AS PRECIPITATION AND FOG.

KYZ079-080-083-085-087-088-110-112-115-119-120-162100
...EASTERN KENTUCKY...

CITY           SKY/WX    TMP DP  RH WIND       PRES   REMARKS
JACKSON        CLOUDY    64  51  62 SW7       30.20F
LONDON         SUNNY     65  49  56 S6        30.19F
SOMERSET*      PTSUNNY   63  50  63 S6        30.19F
MONTICELLO*    CLOUDY    67  52  58 VRB6      30.19F
WILLIAMSBURG*  PTCLDY    66  54  63 S9        30.20F
MIDDLESBORO*   CLOUDY    64  53  68 S5        30.23F
HARLAN APT*    CLOUDY    64  46  52 SW3       30.22F
PIKE CO APT*   PTSUNNY   62  56  80 CALM      30.21F
BIG SANDY APT* CLOUDY    63  55  76 CALM      30.21F
MOREHEAD APT*  CLOUDY    59  52  77 CALM      30.20F
ASHLAND*       CLOUDY    52  46  82 SE7       30.20F
$$

KYZ035-036-041-042-044-050-067-078-099-162100
...CENTRAL KENTUCKY...

CITY           SKY/WX    TMP DP  RH WIND       PRES   REMARKS
MT STERLING*   CLOUDY    63  54  72 SW7       30.19F
FLEMING/MASON* CLOUDY    56  52  84 S7        30.19F
DANVILLE*      CLOUDY    64  52  63 SW9       30.18F
LEXINGTON      PTSUNNY   62  53  72 S9        30.16F
FRANKFORT      CLOUDY    59  51  75 SE3       30.15F
LOUISVILLE     CLOUDY    55  50  83 SE3       30.14F
LEBANON*       CLOUDY    63  54  72 S8        30.16F
GLASGOW*       CLOUDY    64  53  68 SE3       30.13F
BOWLING GREEN  CLOUDY    67  54  63 S6        30.12F
$$

KYZ091>093-OHZ055-061-077-WVZ005-015-034-035-042-162100
...SOUTHERN OHIO/WEST VIRGINIA...

CITY           SKY/WX    TMP DP  RH WIND       PRES   REMARKS
COVINGTON      CLOUDY    50  47  89 SE7       30.16F FOG
COLUMBUS       CLOUDY    47  40  76 S5        30.21F
DAYTON         CLOUDY    46  44  93 SE5       30.17F FOG
WILMINGTON     CLOUDY    49  47  93 E5        30.17F
HUNTINGTON     CLOUDY    54  48  80 NE3       30.21F
CHARLESTON     CLOUDY    56  49  77 CALM      30.21F
BECKLEY        CLOUDY    59  51  75 W10       30.24F
BLUEFIELD      PTSUNNY   59  46  62 W8G17     30.25F
LOGAN CO APT*    N/A     61  55  82 CALM      30.22F
$$

VAZ002-007-008-TNZ017-027-036-066-071-162100
...SOUTHWEST VIRGINIA/EAST TENNESSEE...

CITY           SKY/WX    TMP DP  RH WIND       PRES   REMARKS
WISE*          CLOUDY    61  46  59 SW9       30.27F
JONESVILLE*    MOCLDY    64  52  63 CALM      30.25F
ABINGDON*      CLOUDY    64  49  58 NW6       30.26S
BRISTOL        PTSUNNY   67  45  45 SW8       30.24F
MORRISTOWN*    CLOUDY    63  57  82 CALM      30.22F
SEVIERVILLE*   CLOUDY    59  55  88 CALM      30.23S
KNOXVILLE      CLOUDY    61  54  77 CALM      30.21F
LAFOLLETTE*    CLOUDY    61  55  82 CALM      30.25F
OAK RIDGE      CLOUDY    62  53  72 CALM      30.23F
CROSSVILLE     CLOUDY    61  51  70 S8        30.21F
NASHVILLE      CLOUDY    71  51  49 S17       30.13F
$$

...KEY TO REMARKS...
VSB - VISIBILITY IN MILES
WCI - WIND CHILL INDEX
HX  - HEAT INDEX

$$




USA.gov is the U.S. government's official web portal to all federal, state and local government web resources and services.